Location: Aragnouet
(42.7874°N, 0.2165°E)
Time: 00:49:10
(UTC+00:00)

Cosmos 2218 Rocket - Pass Details

Date: 09 April 2020
Orbit: 957 x 1005 km, 82.9° (Epoch: 02 June)

Event Time Altitude Azimuth Distance (km) Brightness Sun altitude
Rises 20:56:03 0° 350° (N) 3,668 7.7 -24.2°
Reaches altitude 10° 20:58:33 10° 349° (N) 2,723 7.0 -24.5°
Maximum altitude 21:04:46 75° 266° (W) 1,016 4.1 -25.4°
Enters shadow 21:07:09 40° 190° (S) 1,405 4.5 -25.7°
